Total_Precipitation_Accumulation
2.76 2.96 3.75 3.55 3.28 3.08 2.97 2.88 2.70 2.63 2.72 2.87 2.86 2.88 2.93 2.98 3.07 3.19 3.34 3.38 3.59 3.92 4.11 4.17 3.92 3.96 3.93 3.81 3.44 2.96 2.61 2.59 2.49 2.22 2.04 1.97 1.97 2.18 2.61 2.79 2.58 1.94 1.90
2.36 2.73 3.36 3.25 3.07 2.93 2.79 2.72 2.60 2.55 2.73 2.90 2.94 2.89 2.96 2.92 2.96 2.97 3.12 3.47 3.81 4.02 4.10 3.85 3.72 3.76 3.71 3.63 3.22 2.86 2.60 2.54 2.45 2.42 2.26 1.93 2.10 2.48 2.85 2.90 2.87 2.02 1.95
2.06 2.43 2.60 2.89 2.79 2.71 2.65 2.71 2.98 2.99 2.97 2.90 2.90 2.82 2.83 2.81 2.86 2.94 3.18 3.48 3.76 3.74 3.76 3.61 3.49 3.41 3.30 3.20 2.97 2.71 2.57 2.43 2.45 2.62 2.74 1.91 1.73 2.46 2.76 2.79 2.57 1.95 1.76
1.88 2.16 2.27 2.63 2.55 2.34 2.49 2.74 3.05 3.20 3.15 3.05 2.92 2.76 2.69 2.79 2.94 3.06 3.04 3.19 3.35 3.26 3.13 3.21 3.35 3.28 3.07 2.82 2.70 2.64 2.59 2.54 2.72 3.03 3.00 2.10 1.63 2.07 2.48 2.43 2.15 1.83 1.64
1.83 2.10 2.44 2.51 2.33 2.20 2.33 2.62 2.93 3.10 3.05 2.98 2.85 2.74 2.79 2.74 2.80 2.86 2.84 2.97 3.05 3.10 3.03 2.95 3.10 3.19 3.00 2.78 2.67 2.65 2.61 2.67 3.00 3.01 2.55 2.40 2.31 2.29 2.33 2.27 2.07 1.85 1.71
1.49 1.82 2.24 2.44 2.31 2.25 2.49 2.64 2.72 2.77 2.73 2.69 2.67 2.72 2.70 2.64 2.68 2.66 2.60 2.67 2.92 2.98 2.72 2.64 2.93 3.15 3.09 2.83 2.64 2.80 2.90 3.01 2.89 2.33 2.16 2.15 2.24 2.38 2.31 2.38 2.31 2.08 1.92
1.34 1.65 2.04 2.42 2.30 2.27 2.39 2.49 2.61 2.71 2.69 2.59 2.54 2.47 2.50 2.60 2.62 2.53 2.34 2.43 2.65 2.64 2.44 2.44 2.75 2.95 2.99 2.84 2.78 3.11 3.13 3.12 2.60 2.16 2.03 2.24 2.08 2.04 2.21 2.45 2.63 2.41 2.08
1.17 1.47 1.77 2.20 2.23 2.16 2.21 2.34 2.53 2.65 2.64 2.53 2.31 2.21 2.29 2.40 2.38 2.29 2.21 2.38 2.37 2.25 2.27 2.37 2.68 2.57 2.70 2.97 3.09 3.38 3.28 2.74 2.08 2.03 1.89 1.95 1.64 1.76 2.14 2.39 2.53 2.38 2.09
1.07 1.21 1.53 1.85 2.05 2.10 2.30 2.37 2.34 2.29 2.21 2.15 2.01 2.07 2.21 2.31 2.20 2.11 2.13 2.26 2.18 2.22 2.33 2.51 2.68 2.48 2.69 3.08 3.21 3.31 3.15 2.62 2.01 2.00 1.78 1.97 1.86 2.03 2.36 2.44 2.37 2.36 2.11
1.30 1.34 1.52 1.67 1.80 1.92 2.07 2.23 2.22 2.16 2.00 1.89 1.87 1.92 2.01 2.11 2.11 2.00 1.98 2.17 2.11 2.19 2.25 2.47 2.58 2.49 2.82 3.09 3.21 3.16 3.00 2.41 1.83 1.83 1.89 1.75 1.95 2.36 2.69 2.67 2.56 2.49 2.33
1.63 1.65 1.58 1.54 1.56 1.74 1.84 1.94 2.17 2.18 2.08 1.98 2.04 2.09 2.09 2.10 1.91 1.90 1.99 2.36 2.33 2.42 2.46 2.61 2.75 2.99 3.10 3.01 3.18 3.08 2.70 2.22 2.11 2.06 2.07 1.82 2.10 2.65 2.92 2.86 2.79 2.81 2.63
1.72 1.79 1.83 1.75 1.57 1.66 1.72 1.95 2.09 1.84 1.95 2.06 2.21 2.07 2.06 2.15 2.12 1.96 2.35 2.66 2.81 3.03 3.10 3.22 3.42 3.31 3.03 3.07 3.52 3.40 2.53 2.36 2.18 2.20 2.40 2.20 2.43 3.01 3.30 3.10 2.97 3.03 2.92
1.84 1.66 1.82 2.07 2.02 2.00 2.07 1.92 1.91 1.94 2.11 2.13 1.97 1.93 2.13 1.88 1.75 1.98 2.31 2.62 2.91 3.23 3.45 3.69 3.82 3.49 3.46 3.70 3.82 3.40 2.64 2.31 2.25 2.09 2.42 2.54 2.75 3.30 3.71 3.50 3.32 3.30 3.25
2.08 1.75 1.75 1.99 2.27 2.28 2.13 2.00 1.88 1.86 1.99 1.99 2.11 1.98 2.13 2.12 2.12 2.34 2.82 2.96 3.18 3.31 3.79 3.89 4.30 4.06 3.71 3.45 3.49 3.30 2.89 2.70 2.45 2.50 2.81 2.47 2.65 3.23 3.87 3.93 3.77 3.58 3.39
2.33 2.10 1.98 1.96 2.24 2.33 2.34 2.18 1.93 2.02 1.99 2.12 2.28 2.19 2.25 2.37 2.68 2.99 3.14 3.50 3.40 3.43 3.76 4.24 4.26 4.54 4.47 4.30 3.98 3.58 3.43 3.16 2.78 2.85 2.96 2.84 2.75 3.04 3.71 4.25 4.18 3.93 3.61
2.66 2.55 2.29 2.13 2.19 2.34 2.42 2.41 2.36 2.29 2.46 2.46 2.53 2.54 2.67 2.90 3.23 3.59 3.67 3.84 3.65 3.64 4.11 4.44 4.50 5.08 4.94 4.70 4.15 3.81 3.56 3.39 3.07 2.92 3.12 3.26 2.87 2.79 3.29 4.14 4.53 4.42 4.20
2.84 2.93 2.84 2.67 2.67 2.83 3.13 3.05 2.77 2.82 2.84 2.93 3.07 3.13 3.11 3.25 3.71 4.04 4.03 3.95 3.96 3.95 4.36 4.64 4.77 4.91 4.61 4.39 4.20 3.97 3.77 3.51 3.07 3.09 3.12 3.32 3.13 2.90 3.21 3.66 4.21 4.45 4.63
2.93 3.32 3.45 3.22 3.41 3.64 3.93 3.90 3.57 3.51 3.41 3.38 3.30 3.34 3.30 3.44 3.76 4.33 4.14 3.99 4.37 4.19 4.47 5.08 5.14 5.04 4.96 4.66 4.39 3.98 3.76 3.59 3.07 3.00 3.03 3.24 3.58 3.10 3.21 3.60 3.90 4.11 4.74
3.06 3.57 3.84 4.00 4.23 4.29 4.41 4.44 4.26 4.10 3.92 3.59 3.56 3.55 3.40 3.45 3.62 4.12 4.05 4.19 4.21 4.51 4.69 4.37 5.10 5.21 5.04 4.72 4.01 3.78 3.39 3.22 3.17 2.87 3.03 3.09 3.48 3.32 3.33 3.40 3.69 3.90 4.67
3.35 3.79 4.36 4.69 4.88 4.66 4.62 4.67 4.43 4.08 3.90 3.65 3.60 3.58 3.37 3.45 3.52 4.07 3.94 3.94 4.01 4.47 4.64 4.60 5.08 5.05 4.70 4.61 3.61 3.41 3.23 2.81 2.81 2.89 2.71 2.93 3.22 2.91 3.15 3.45 3.87 3.45 3.83
3.83 4.13 4.46 4.96 5.30 5.22 5.28 5.17 5.00 4.67 4.44 4.01 3.54 3.17 3.13 3.15 3.41 3.99 3.66 4.08 3.99 4.19 4.30 4.25 4.62 4.78 4.39 4.38 4.29 3.80 3.04 2.57 2.53 2.53 2.58 2.78 2.81 2.94 3.60 4.19 4.34 4.17 3.93
3.64 4.17 4.53 4.57 4.59 4.51 4.76 5.13 5.33 5.26 4.71 4.05 3.66 3.52 3.14 3.09 3.27 3.51 3.86 3.75 3.80 4.03 4.03 4.06 4.41 4.42 3.96 4.07 4.33 4.38 3.59 3.21 2.65 2.06 2.40 2.55 2.67 3.09 3.39 3.60 4.03 4.38 4.52
3.07 3.61 3.78 3.68 3.66 3.59 3.75 4.13 4.43 4.74 4.49 4.17 3.86 3.60 3.18 3.05 3.09 3.28 3.54 3.56 3.61 3.44 3.68 3.92 3.89 3.96 3.89 3.82 3.86 4.33 4.00 3.55 2.98 2.36 2.19 2.31 2.69 3.00 3.06 3.30 3.36 3.71 4.04
2.22 2.47 2.68 2.91 3.06 3.10 3.15 3.36 3.59 3.90 3.97 3.97 3.91 3.56 3.18 2.88 2.86 3.03 3.15 3.15 3.19 3.11 3.41 3.13 3.26 3.60 3.85 3.70 3.59 3.52 3.59 3.73 3.60 2.91 2.39 2.26 2.56 2.72 2.71 2.67 2.97 3.44 3.59
1.96 2.21 2.43 2.75 2.93 3.01 2.97 3.05 3.27 3.61 3.68 3.51 3.39 3.46 3.23 2.94 2.67 2.61 2.83 2.92 2.91 2.82 2.92 2.98 3.34 3.27 3.41 3.46 3.47 3.46 3.57 3.60 3.42 3.23 2.83 2.68 2.61 2.32 2.29 2.47 2.75 3.13 3.32
1.84 2.06 2.30 2.55 2.57 2.68 2.74 2.75 2.80 3.03 3.20 3.07 2.94 2.95 2.80 2.68 2.57 2.47 2.54 2.74 2.65 2.63 2.75 2.87 2.98 2.98 3.07 3.19 3.20 3.22 3.51 3.41 3.32 3.43 3.04 2.85 2.74 2.38 2.31 2.41 2.57 2.87 3.03